Location: Mudpalli
(16.9225°N, 80.3368°E)
Time: 19:48:36
(UTC+00:00)

Daily predictions for brighter satellites

Satellite Brightness Start Highest point End
(mag) Time Altitude Azimuth Time Altitude Azimuth Time Altitude Azimuth
Meteor 2-2 Rocket 4.4 12:17:40 10° S 12:23:19 82° W 12:29:06 10° N
NOSS 3-4 (A) 4.2 12:16:50 10° NNW 12:24:39 73° ENE 12:33:12 10° SSE
NOSS 3-4 (C) 4.1 12:16:58 10° NNW 12:24:41 73° ENE 12:33:09 10° SSE
Cosmos 2026 Rocket 4.0 12:19:03 10° S 12:25:08 64° E 12:31:19 10° NNE
Lacrosse 5 4.3 12:22:10 10° W 12:25:32 18° NW 12:28:56 10° N
OAO 2 Rocket 3.5 12:23:35 10° WSW 12:28:33 69° NNW 12:33:38 10° NE
JB-3 4.4 12:28:24 10° NNE 12:32:05 51° E 12:35:44 10° S
Hubble Space Telescope 1.0 12:29:11 10° NW 12:33:05 50° NNE 12:36:59 10° E
SL-4 R/B 1.5 12:30:46 10° SW 12:34:08 78° NW 12:37:26 10° NE
Cosmos 1371 Rocket 4.3 12:36:49 10° SSW 12:41:58 73° WNW 12:47:11 10° N
Cosmos 1092 Rocket 4.1 12:36:13 10° S 12:42:22 83° W 12:48:30 10° N
Cosmos 2221 2.5 12:39:07 10° S 12:43:17 59° E 12:47:26 10° NNE
Meteor 1-25 Rocket 4.3 12:38:51 10° N 12:44:19 56° E 12:49:44 10° SSE
Meteor 1-26 Rocket 4.1 12:39:51 10° S 12:45:14 70° E 12:50:45 10° NNE
Cosmos 1844 Rocket 3.9 12:41:31 10° SW 12:46:43 41° WNW 12:51:56 10° N
Delta 7925 Rocket 3.4 12:42:17 10° W 12:46:51 64° NNW 12:50:50 15° ENE
COSMO-SKYMED 1 3.3 12:44:06 10° N 12:48:20 56° WNW 12:52:34 10° SSW
BREEZE-M DEB (TANK) 4.1 12:34:33 10° SSW 12:49:26 47° SE 12:52:37 16° ENE
Cosmos 1023 Rocket 4.5 12:45:27 10° N 12:50:25 54° ENE 12:55:20 10° SSE
EXPRESS MD2 4.3 12:49:53 10° SSE 12:51:39 17° ESE 12:52:25 16° E
Lacrosse 4 Rocket 2.3 12:49:42 10° N 12:53:13 25° ENE 12:56:39 10° ESE
ADEOS 4.1 12:55:06 10° SE 12:59:46 35° ENE 13:04:27 10° N
SKYMED 3 4.3 13:00:14 10° NNE 13:04:15 70° ESE 13:08:17 10° S
YAOGAN 1 3.6 13:02:26 10° SE 13:05:28 23° E 13:05:28 23° E
FUSE 4.3 13:01:35 10° W 13:06:46 54° NNW 13:09:52 23° NE
Cosmos 2278 Rocket 3.8 13:05:01 10° SE 13:07:38 15° ESE 13:07:38 15° ESE
CBERS 1 LM4 rocket 4.3 13:06:12 10° SSE 13:11:10 84° ENE 13:15:57 10° N
GPS 2-14 Rocket1 2.6 13:10:57 10° W 13:14:29 55° N 13:15:30 39° NE
Meteor 1-5 Rocket 4.4 13:10:19 10° N 13:15:57 51° E 13:21:42 10° SSE
Cosmos 1140 Rocket 3.6 13:12:48 10° NNW 13:17:56 76° WSW 13:23:00 10° S
DELTA 4 R/B 3.6 13:13:01 10° WSW 13:18:32 84° NNW 13:26:59 25° ENE
Cosmos 1766 Rocket 3.6 13:17:00 10° N 13:21:11 50° E 13:25:21 10° SSE
Meteor PRIRODA 3.3 13:18:06 10° SSE 13:21:31 71° ENE 13:24:28 13° N
SME Rocket 4.1 13:18:24 10° SE 13:22:19 33° ENE 13:27:33 10° N
CZ-4B R/B 3.3 13:19:08 10° SSE 13:23:16 43° ENE 13:24:24 35° NE
Tiangong -1.7 13:20:18 10° WNW 13:23:24 60° SW 13:24:33 33° SSE
DELTA 2 DEB (DPAF) 3.9 13:21:11 23° NNE 13:23:47 73° ESE 13:28:02 10° S
Radarsat Rocket 3.9 13:18:12 10° SSE 13:24:09 90° WSW 13:29:59 10° NNW
Cosmos 1603 3.6 13:18:52 10° N 13:24:27 64° ENE 13:29:58 10° SSE
Cosmos 1842 Rocket 4.3 13:36:52 10° SSW 13:41:02 50° W 13:44:26 15° NNW
CZ-4B DEB 4.2 13:36:00 10° SSE 13:41:19 52° ENE 13:42:43 42° NNE
Cosmos 1110 Rocket 3.9 13:37:05 10° SSW 13:42:17 88° WNW 13:44:24 37° NNE
Cosmos 1655 Rocket 4.0 13:37:12 10° SSE 13:43:13 53° E 13:44:23 47° NE
Centaur D-1A AC-35 3.5 13:40:12 10° W 13:43:42 46° SSW 13:51:57 10° SE
Cosmos 1943 4.3 13:43:05 10° NW 13:48:22 43° WSW 13:53:41 10° S
Gbstr 26 Del rocket 3.2 13:46:51 10° SW 13:52:03 69° NW 13:52:20 67° NNW
IUS-18 SRM-1 3.9 13:56:29 10° W 13:58:46 28° SSW 13:58:46 28° SSW
Cosmos 1943 Rocket 4.5 13:58:41 10° SSE 13:58:43 10° SSE 13:58:43 10° SSE
Hubble Space Telescope 2.7 14:10:12 10° W 14:12:40 27° WSW 14:12:40 27° WSW
Centaur D AC-28 3.8 14:22:38 10° WNW 14:28:29 30° NNW 14:28:29 30° NNW
Lacrosse 4 Rocket 4.5 14:29:20 10° WNW 14:31:16 13° WSW 14:33:11 10° SW
Aurora 2 Rocket 4.4 14:21:47 10° WNW 14:31:21 77° NNE 14:32:00 74° NE
Cosmos 2278 Rocket 3.9 14:46:27 10° SW 14:49:32 29° WSW 14:49:32 29° WSW
H-2A R/B 4.3 15:10:25 10° WNW 15:41:18 - ESE 15:12:44 31° WNW
CZ-3 R/B 4.3 19:52:50 10° WSW 21:03:00 78° NNE 21:16:16 10° ENE
Centaur D-1A AC-32 4.3 22:07:22 34° ENE 22:07:22 34° ENE 22:09:31 10° E
SL-4 R/B 4.2 22:42:16 23° SSE 22:42:16 23° SSE 22:43:59 10° SSE
BREEZE-M (TANK) 3.7 22:48:04 65° N 22:48:04 65° N 22:59:12 10° NE
USA 281 3.5 22:42:11 10° NNE 22:48:40 65° ESE 22:55:08 10° S
H-2A R/B 3.1 22:47:29 10° NNE 22:52:12 43° E 22:57:00 10° S
Cosmos 2058 Rocket 4.3 22:58:08 32° S 22:58:08 32° S 23:00:31 10° S
Cosmos 2034 Rocket 4.4 22:51:34 10° S 22:57:49 63° E 23:04:03 10° NNE
Palapa B4 Rocket 4.2 22:57:49 56° W 22:59:41 83° SSW 23:05:24 10° ESE
Cosmos 1844 4.4 23:02:11 22° N 23:05:31 49° ENE 23:10:50 10° SE
GPS 2-15 Rocket1 3.1 23:06:50 73° NE 23:06:50 73° NE 23:11:20 10° E
COSMOS 2455 4.3 23:03:42 11° N 23:08:52 34° ENE 23:14:14 10° SE
Palapa 6 Rocket 3.3 23:09:56 67° WNW 23:10:37 78° NNW 23:15:30 10° ENE
USA 215 3.1 23:07:53 10° NNE 23:14:20 69° NW 23:20:49 10° SW
Timation 2 Rocket 4.2 23:11:13 23° NNW 23:15:37 80° ENE 23:22:25 10° SSE
SWIFT 4.5 23:14:09 14° SSW 23:16:11 20° SSE 23:19:13 10° ESE
GPS 2-12 Rocket1 2.7 23:17:46 79° WNW 23:18:03 90° E 23:22:26 10° ESE
Cosmos 1939 Rocket 2.6 23:19:20 47° N 23:20:22 90° W 23:24:09 10° SSW
ARIANE 5 R/B 2.4 23:15:10 10° N 23:20:24 80° WNW 23:25:36 10° SSW
Cosmos 1048 Rocket 3.9 23:21:46 10° SSW 23:26:54 61° WNW 23:31:58 10° N
COSMOS 2428 2.8 23:22:08 10° SW 23:27:34 48° WNW 23:33:02 10° N
NOSS 0 Rocket 3.9 23:21:40 10° SSW 23:27:52 85° ESE 23:34:07 10° NNE
Geosat 3.9 23:24:09 10° NNE 23:29:06 68° WNW 23:34:03 10° SSW
Atlas Centaur 2 1.6 23:32:47 39° N 23:32:47 39° N 23:35:53 10° NE
Delta 168 2.3 23:36:08 52° NNW 23:36:29 56° NNE 23:39:31 10° E
Cosmos 1844 Rocket 2.7 23:33:26 25° NNW 23:36:46 63° WSW 23:42:20 10° S
IRS-1C 4.3 23:33:42 10° N 23:38:43 44° WNW 23:43:45 10° SW
Cosmos 1420 Rocket 4.1 23:33:57 10° N 23:39:15 77° ENE 23:44:30 10° SSE
ATLAS 5 CENTAUR R/B 3.5 23:36:32 10° SSE 23:39:20 23° ESE 23:42:02 10° ENE
Cosmos 1634 Rocket 4.1 23:40:04 10° S 23:46:13 79° E 23:52:24 10° N
Spot 4 Rocket 4.5 23:41:11 10° NNE 23:46:16 65° ESE 23:51:21 10° S
Cosmos 1624 Rocket 4.0 23:41:51 10° N 23:47:04 82° ENE 23:52:17 10° SSE
Cosmos 1825 Rocket 3.5 23:43:07 10° SSW 23:47:27 64° W 23:51:46 10° N
SL-19 R/B 4.4 23:43:40 10° N 23:48:35 42° WNW 23:53:27 10° SW
Cosmos 2237 Rocket 2.2 23:45:11 10° SSW 23:50:51 87° ESE 23:56:31 10° NNE
Nadezhda 4 Rocket 3.9 23:45:50 10° N 23:51:58 74° W 23:58:11 10° S
ARGOS 3.2 23:46:40 10° NNE 23:52:01 81° E 23:57:22 10° S
Cosmos 1782 3.6 23:48:27 10° N 23:52:12 50° E 23:55:56 10° SSE
